Location: Home
(40.5300°N, 105.0300°W)
Time: 02:54:03
(UTC-06:00)

STARLINK-2695 - Pass Details

Date: 22 June 2021
Orbit: 546 x 548 km, 53.1° (Epoch: 25 July)

Event Time Altitude Azimuth Distance (km) Brightness Sun altitude
Exits shadow 03:53:19 18° 180° (S) 1,354 5.2 -14.7°
Maximum altitude 03:55:32 30° 131° (SE) 987 4.9 -14.4°
Drops below altitude 10° 03:59:09 10° 70° (ENE) 1,813 7.3 -14.0°
Sets 04:01:34 0° 59° (ENE) 2,710 8.7 -13.7°
